LFBT

Tarbes-Lourdes-Pyrénées Airport

Airport
ICAO code
LFBT
IATA Code
LDE
Summary
ICAO Region
EUR
ICAO Territory
Location

Ossun, Midi-Pyrenees

Serving
Tarbes
Elevation
1259 ft
Coordinates
43° 10' 57" N , 0° 0' 15" W
KCC
Airport WX
Fog
Metar
LFBT 231130Z AUTO 30010KT 270V330 9999 FEW026 SCT042 15/10 Q1020 TEMPO FEW018CB BKN030

Description

International airport serving Tarbes.

Climatology

Temperate Marine climate/Oceanic climate (Köppen climate classification Cfb). Moderately cool summer and comparatively warm winter. Prevailing south-westerly winds from the Atlantic Ocean.

Runways

Designator Length Width Surface Rops
2/20 3000 45 ASP Yes/Yes

Airport map

Aerial View

Airport accidents

SKYbrary Partners:

Safety knowledge contributed by: